User: anonymous   Login
Location: Unspecified
(0.0000°N, 0.0000°E)
Time: 23:47:28
(UTC+02:00)
Language:

Cosmos 2237 Rocket - Orbit

View from above orbital plane
View from above orbital plane
View from above satellite
View from above satellite

Ground track
Ground track

The orbit data is extracted from the following two-line orbital elements,

1 22566U 93016B   15114.97414863  .00000359  00000-0  21045-3 0  9996
2 22566 071.0070 272.9599 0012310 249.6813 110.2987 14.14897232140342
Epoch (UTC): 24 April 2015 23:22:46
Eccentricity: 0.0012310
inclination: 71.0070°
perigee height: 834 km
apogee height: 851 km
right ascension of ascending node: 272.9599°
argument of perigee: 249.6813°
revolutions per day: 14.14897232
mean anomaly at epoch: 110.2987°
orbit number at epoch: 14034

The dashed part of the orbit path shows where the satellite is in the earth's shadow,  

DLR